This demonstration page uses our WeatherBlox Daily Observations layout. Learn more.

Left ArrowRight Arrow

31.31129, -92.44514

Hourly Observations for December 30, 2021

Temp ( °F °C ) Dew Point ( °F °C ) Humidity (%) Winds ( mph kmh ) Pressure ( in mb ) Visibility ( mi km ) Precip ( " mm )
12:11 am 00:11 Mostly Cloudy with Mist and Fog 71 21.7 69 20.6 94 94 Calm 29.83 1010 4 6 0.00 0.00
12:32 am 00:32 Mostly Clear with Mist and Fog 71 21.7 69 20.6 94 94 Calm 29.83 1010 2 3 0.00 0.00
12:39 am 00:39 Partly Cloudy with Mist and Fog 71 21.7 69 20.6 94 94 Calm 29.83 1010 1 2 0.00 0.00
12:53 am 00:53 Partly Cloudy with Mist and Fog 69 20.6 67 19.4 93 93 Calm 29.83 1010 2 3 0.00 0.00
1:04 am 01:04 Partly Cloudy with Mist and Fog 70 21.1 68 20 93 93 Calm 29.83 1010 2 3 0.00 0.00
1:19 am 01:19 Mostly Cloudy with Mist and Fog 71 21.7 69 20.6 94 94 Calm 29.83 1010 2 2 0.00 0.00
1:35 am 01:35 Mostly Cloudy with Mist and Fog 71 21.7 69 20.6 94 94 SSW 3 6 29.83 1010 3 4 0.00 0.00
1:53 am 01:53 Mostly Cloudy with Mist and Fog 69 20.6 68 20 96 96 WSW 3 6 29.84 1010 3 4 0.00 0.00
2:08 am 02:08 Partly Cloudy with Mist and Fog 69 20.6 67 19.4 93 93 Calm 29.83 1010 1 1 0.00 0.00
2:15 am 02:15 Mostly Cloudy with Fog 69 20.6 67 19.4 93 93 Calm 29.83 1010 1 1 0.00 0.00
2:30 am 02:30 Partly Cloudy with Fog 69 20.6 67 19.4 93 93 Calm 29.83 1010 1 1 0.00 0.00
2:40 am 02:40 Mostly Cloudy with Fog 69 20.6 67 19.4 93 93 Calm 29.83 1010 0 0 0.00 0.00
2:50 am 02:50 Mostly Cloudy with Mist and Fog 70 21 68 20 94 94 Calm 29.84 1010 1 1 0.00 0.00
2:53 am 02:53 Mostly Cloudy with Mist and Fog 69 20.6 68 20 96 96 Calm 29.84 1011 1 1 0.00 0.00
3:13 am 03:13 Cloudy with Mist and Fog 70 21.1 67 19.4 90 90 Calm 29.83 1010 2 3 0.00 0.00
3:26 am 03:26 Cloudy with Mist and Fog 70 21.1 68 20 93 93 Calm 29.83 1010 3 4 0.00 0.00
3:38 am 03:38 Cloudy with Mist and Fog 70 21.1 68 20 93 93 Calm 29.84 1010 3 5 0.00 0.00
3:46 am 03:46 Cloudy with Mist and Fog 70 21.1 68 20 93 93 NNW 5 7 29.84 1010 2 3 0.00 0.00
3:53 am 03:53 Cloudy with Mist and Fog 70 21.1 68 20 93 93 NNW 3 6 29.85 1011 2 2 0.00 0.00
4:04 am 04:04 Cloudy with Mist and Fog 70 21.1 68 20 93 93 Calm 29.84 1010 2 3 0.00 0.00
4:39 am 04:39 Cloudy with Mist and Fog 70 21.1 68 20 93 93 W 3 6 29.85 1011 2 3 0.00 0.00
4:53 am 04:53 Cloudy with Mist and Fog 70 21.1 68 20 93 93 W 3 6 29.85 1011 2 2 0.00 0.00
5:18 am 05:18 Cloudy with Fog 69 20.6 68 20 96 96 Calm 29.84 1010 1 1 0.00 0.00
5:29 am 05:29 Cloudy with Mist and Fog 70 21.1 68 20 93 93 Calm 29.85 1011 1 2 0.00 0.00
5:53 am 05:53 Cloudy with Mist and Fog 70 21.1 68 20 93 93 Calm 29.87 1011 1 2 0.00 0.00
6:31 am 06:31 Cloudy with Mist and Fog 70 21.1 68 20 93 93 W 5 7 29.87 1011 3 4 0.00 0.00
6:42 am 06:42 Cloudy with Mist and Fog 71 21.7 68 20 90 90 N 3 6 29.87 1011 3 5 0.00 0.00
6:49 am 06:49 Cloudy with Mist and Fog 70 21 68 20 94 94 N 3 6 29.88 1012 2 3 0.00 0.00
6:53 am 06:53 Cloudy with Mist and Fog 70 21.1 68 20 93 93 N 3 6 29.89 1012 2 3 0.00 0.00
7:29 am 07:29 Cloudy with Mist and Fog 70 21.1 68 20 93 93 Calm 29.90 1012 1 2 0.00 0.00
7:44 am 07:44 Cloudy with Mist and Fog 69 20.6 67 19.4 93 93 Calm 29.90 1012 1 1 0.00 0.00
7:53 am 07:53 Cloudy with Mist and Fog 69 20.6 67 19.4 93 93 S 5 7 29.91 1013 1 1 0.00 0.00
8:11 am 08:11 Mostly Cloudy with Mist and Fog 70 21.1 68 20 93 93 S 5 7 29.91 1013 1 2 0.00 0.00
8:49 am 08:49 Mostly Cloudy with Mist and Fog 72 22 70 21 94 94 Calm 29.93 1013 2 3 0.00 0.00
8:53 am 08:53 Mostly Cloudy with Mist and Fog 72 22.2 69 20.6 91 91 Calm 29.94 1014 3 4 0.00 0.00
8:58 am 08:58 Mostly Cloudy with Mist and Fog 72 22.2 69 20.6 91 91 Calm 29.93 1013 3 5 0.00 0.00
9:05 am 09:05 Mostly Cloudy with Mist and Fog 72 22.2 69 20.6 91 91 Calm 29.94 1014 3 5 0.00 0.00
9:45 am 09:45 Hazy 74 23.3 69 20.6 85 85 S 5 7 29.93 1013 5 8 0.00 0.00
9:53 am 09:53 Hazy 74 23.3 69 20.6 85 85 SSE 6 9 29.94 1014 5 8 0.00 0.00
10:53 am 10:53 Hazy 77 25 68 20 74 74 SE 9 15 29.91 1013 6 10 0.00 0.00
11:53 am 11:53 Sunny 80 26.7 66 18.9 62 62 SE 10 17 29.89 1012 8 13 0.00 0.00
12:53 pm 12:53 Sunny 81 27.2 66 18.9 61 61 S 7 11 29.88 1012 8 13 0.00 0.00
1:53 pm 13:53 Sunny 82 27.8 67 19.4 60 60 SW 5 7 29.85 1011 8 13 0.00 0.00
2:53 pm 14:53 Sunny 83 28.3 64 17.8 53 53 WSW 7 11 29.85 1011 9 14 0.00 0.00
3:53 pm 15:53 Sunny 82 27.8 64 17.8 55 55 WSW 5 7 29.85 1011 8 13 0.00 0.00
4:53 pm 16:53 Mostly Sunny 79 26.1 66 18.9 65 65 S 3 6 29.85 1011 7 11 0.00 0.00
5:53 pm 17:53 Clear 75 23.9 64 17.8 69 69 SSE 6 9 29.85 1011 8 13 0.00 0.00
6:53 pm 18:53 Clear 72 22.2 66 18.9 82 82 SSE 6 9 29.86 1011 7 11 0.00 0.00
7:53 pm 19:53 Hazy 71 21.7 65 18.3 81 81 SSE 6 9 29.87 1012 6 10 0.00 0.00
8:53 pm 20:53 Hazy 72 22.2 67 19.4 84 84 S 7 11 29.88 1012 6 10 0.00 0.00
9:53 pm 21:53 Clear with Mist and Fog 72 22.2 68 20 87 87 S 6 9 29.88 1012 6 10 0.00 0.00
10:53 pm 22:53 Partly Cloudy with Mist and Fog 72 22.2 68 20 87 87 S 8 13 29.88 1012 6 10 0.00 0.00
11:53 pm 23:53 Cloudy with Mist and Fog 71 21.7 68 20 90 90 S 6 9 29.87 1012 6 10 0.00 0.00

Powered by AerisWeather